Regional Weather Roundup
Issued by NWS Memphis, TN

Home | Current Version | Previous Version | Text Only | Print | Product List | Glossary On
Versions: 1 2 3 4 5 6 7 8 9 10 11 12 13 14 15 16 17 18 19 20 21 22 23 24 25 26 27 28 29 30 31 32 33 34 35 36 37 38 39 40 41 42 43 44 45 46 47 48 49 50
000
ASUS44 KMEG 120910
RWRMEG
MEMPHIS CWA HOURLY WEATHER ROUNDUP
NATIONAL WEATHER SERVICE MEMPHIS TN
300 AM CST TUE NOV 12 2019

...WEST TENNESSEE...

CITY           SKY/WX    TMP DP  RH WIND       PRES   REMARKS
MEMPHIS INTL   CLOUDY    26  19  74 N18G28    30.42R WCI  13
NWS MEMPHIS      N/A     24 N/A N/A MISG        N/A
JACKSON        CLOUDY    24  18  77 N18       30.41R WCI  10
COVINGTON      CLOUDY    23  16  74 N28G33    30.45R WCI   6
SOMERVILLE     CLOUDY    27  19  74 N14       30.38R WCI  15
BOLIVAR        CLOUDY    25  19  80 N13G23    30.37R WCI  13
LEXINGTON      CLOUDY    25  19  80 N16G28    30.35R WCI  12
SELMER         CLOUDY    25  21  86 N16G24    30.33R WCI  12
DYERSBURG      FAIR      20  13  74 N20G31    30.48R WCI   4
UNION CITY     PTCLDY    19  10  68 N13G28    30.46R WCI   7
PARIS          CLOUDY    21  12  68 N23G31    30.40R WCI   5


...EASTERN ARKANSAS...

CITY           SKY/WX    TMP DP  RH WIND       PRES   REMARKS
JONESBORO      FAIR      23  12  62 N12       30.51R WCI  12
WEST MEMPHIS   CLOUDY    26  18  71 N17G28    30.45R WCI  13
BATESVILLE     MOCLDY    20  13  74 N8G17     30.54R WCI  10
NEWPORT        FAIR      21  14  74 N18       30.54R WCI   6
WALNUT RIDGE   FAIR     N/A N/A N/A N14       30.54R
BLYTHEVILLE    FAIR      22  15  75 N24G36    30.50R WCI   5
SEARCY         FAIR      22  14  71 N9        30.53R WCI  12
STUTTGART      FAIR      26  16  65 N24G32    30.49R WCI  11
PINE BLUFF     FAIR      26  14  60 N22G29    30.49R WCI  12
MONTICELLO     FAIR      30  19  63 N12G23    30.44R WCI  20


...NORTH MISSISSIPPI...

CITY           SKY/WX    TMP DP  RH WIND       PRES   REMARKS
TUPELO         CLOUDY    30  24  78 N24G33    30.29R WCI  16
OXFORD         CLOUDY    27  23  86 N17G25    30.36R WCI  14
BATESVILLE     CLOUDY    28  23  80 N14G21    30.38R WCI  17
OLIVE BRANCH   CLOUDY    25  16  68 CALM      30.40R
TUNICA           N/A     28  19  69 N22G36    30.17F WCI  15
CLARKSDALE       N/A     30  25  80 N24G30    30.42R WCI  16
CORINTH        CLOUDY    28  23  80 N20G26    30.33R WCI  15
GREENWOOD      CLOUDY    32 N/A N/A N12G24    30.35R WCI  23
COLUMBUS       CLOUDY    32  28  85 NW16G29   30.23R WCI  22
STARKVILLE     LGT SNOW  32  30  93 NW9       30.27R WCI  24
GOLDEN TRIANGL CLOUDY    32  31  96 N22G32    30.25R WCI  19


...SOUTHEAST MISSOURI...

CITY           SKY/WX    TMP DP  RH WIND       PRES   REMARKS
KENNETT        MOCLDY    21  14  73 N18G28    30.50R WCI   6
MALDEN         MOCLDY    23  14  68 MISG      30.53R
WEST PLAINS    CLOUDY    15   8  73 N14G24    30.51R WCI   0
POPLAR BLUFF   FAIR      19   9  65 N17G29    30.52R WCI   4
CAPE GIRARDEAU FAIR      18   9  68 N15       30.52R WCI   4


...NORTHWEST ALABAMA...

CITY           SKY/WX    TMP DP  RH WIND       PRES   REMARKS
MUSCLE SHOALS  CLOUDY    30 N/A N/A N17G26    30.25S WCI  18


...MIDDLE TENNESSEE...

CITY           SKY/WX    TMP DP  RH WIND       PRES   REMARKS
NASHVILLE      CLOUDY    26  20  77 N17G25    30.31R WCI  13
CLARKSVILLE    CLOUDY    23 N/A N/A N21       30.38R WCI   8
DICKSON        CLOUDY    23  19  86 N22G29    30.31R WCI   8
COLUMBIA       CLOUDY    25  25 100 N13G23    30.27S WCI  13
LAWRENCEBURG   CLOUDY    27  23  86 N20G26    30.24R WCI  13
LEWISBURG      CLOUDY    27  23  86 N16G25    30.25S WCI  14


...WESTERN KENTUCKY...

CITY           SKY/WX    TMP DP  RH WIND       PRES   REMARKS
PADUCAH        FAIR      18  10  71 N13G21    30.48R WCI   5
FORT CAMPBELL  CLOUDY    22  14  70 NW16G22   30.37R WCI   8


...CENTRAL ARKANSAS...

CITY           SKY/WX    TMP DP  RH WIND       PRES   REMARKS
LITTLE ROCK    PTCLDY    23  14  68 N15       30.53R WCI  10


SKY/WX REPORTED AS FAIR MEANS FEW OR NO CLOUDS BELOW
12 THOUSAND FEET.




USA.gov is the U.S. government's official web portal to all federal, state and local government web resources and services.